Погода в Утар-Атах

Россия / Республика Татарстан     56°09′07″N   49°39′37″E
темп.,
°C
ветер,
м/с
пор.,
м/с
влажн.,
%
обл.,
%
осадки,
мм/ч
давл.,
гПа
погр.,
м
18 сентября, сб
сб1800:00+3сз368894 0.1 1015179
03:00+1сз4109593 0.1 1016345
06:00+4ссз6985100 0.2 10161019
09:00+6с696213 0.3 10181276
12:00+8ссз6747100 0.1 10191720
15:00+8ссз6851100 0.1 10201434
18:00+4ссз367663 0.1 1021149
21:00+5ссз5106973 0.1 1022651
19 сентября, вс
вс1900:00+1сз48955 0.0 1023214
03:00−1сз49945 0.0 1023195
06:00−1сз39935 0.0 1024203
09:00+5сз46645 0.0 1024689
12:00+9сз564647 0.0 10241334
15:00+9ссз554392 0.0 10241445
18:00+5ссз336259 0.0 102426
21:00+1св3782100 0.0 1026165
20 сентября, пн
пн2000:00−1св338640 0.0 102750
03:00−1св348538 0.0 102854
06:00−1всв3481100 0.0 102884
09:00+5в345499 0.0 1028815
12:00+8в4442100 0.0 10281104
15:00+9в4440100 0.0 10271143
18:00+5в3552100 0.0 102781
21:00+4в3760100 0.0 1028141
21 сентября, вт
вт2100:00+2в4965100 0.0 1028197
03:00+3в51165100 0.0 1027283
06:00+3в5116983 0.0 1026313
09:00+7вюв695397 0.0 1025534
12:00+7вюв6958100 0.0 1024674
15:00+7вюв61063100 0.1 1023560
18:00+7вюв61160100 0.0 1022535
21:00+7в6125488 0.0 1020418
22 сентября, ср
ср2200:00+7в6125999 0.0 1019395
03:00+7в71462100 0.0 1017400
06:00+8в81561100 0.0 1016477
09:00+11в81456100 0.0 1015575
12:00+14вюв101351100 0.0 1013958
15:00+11вюв91486100 0.6 1013651
18:00+9вюв81496100 4.9 1014584
21:00+9юв61296100 7.4 1014610